Time,TemperatureF,DewpointF,PressureIn,WindDirection,WindDirectionDegrees,WindSpeedMPH,WindSpeedGustMPH,Humidity,HourlyPrecipIn,Conditions,Clouds,dailyrainin,SolarRadiationWatts/m^2,SoftwareType,DateUTC
2013-08-07 00:01:00,60.0,23.0,-100.00,NE,54,2.0,7.0,24,0.00,,,0.00,0.000000,,2013-08-07 07:01:00,
2013-08-07 01:32:00,63.0,27.0,-100.00,South,172,3.0,8.0,25,0.00,,,0.00,0.000000,,2013-08-07 08:32:00,
2013-08-07 01:44:00,63.0,27.0,-100.00,South,172,3.0,8.0,25,0.00,,,0.00,0.000000,,2013-08-07 08:44:00,
2013-08-07 01:52:00,63.0,27.0,-100.00,South,172,3.0,8.0,25,0.00,,,0.00,0.000000,,2013-08-07 08:52:00,
2013-08-07 02:01:00,63.0,27.0,-100.00,South,172,3.0,8.0,25,0.00,,,0.00,0.000000,,2013-08-07 09:01:00,
2013-08-07 02:43:00,65.0,29.0,-100.00,NNW,327,3.0,10.0,26,0.00,,,0.00,0.000000,,2013-08-07 09:43:00,
2013-08-07 02:54:00,65.0,29.0,-100.00,NNW,327,3.0,10.0,26,0.00,,,0.00,0.000000,,2013-08-07 09:54:00,
2013-08-07 03:01:00,65.0,29.0,-100.00,NNW,327,3.0,10.0,26,0.00,,,0.00,0.000000,,2013-08-07 10:01:00,
2013-08-07 03:32:00,65.0,30.0,-100.00,NE,35,4.0,12.0,27,0.00,,,0.00,0.000000,,2013-08-07 10:32:00,
2013-08-07 03:43:00,65.0,30.0,-100.00,NE,35,4.0,12.0,27,0.00,,,0.00,0.000000,,2013-08-07 10:43:00,
2013-08-07 03:52:00,65.0,30.0,-100.00,NE,35,4.0,12.0,27,0.00,,,0.00,0.000000,,2013-08-07 10:52:00,
2013-08-07 04:01:00,65.0,30.0,-100.00,NE,35,4.0,12.0,27,0.00,,,0.00,0.000000,,2013-08-07 11:01:00,
2013-08-07 04:32:00,65.0,34.0,-100.00,West,275,3.0,10.0,31,0.00,,,0.00,0.000000,,2013-08-07 11:32:00,
2013-08-07 04:43:00,65.0,34.0,-100.00,West,275,3.0,10.0,31,0.00,,,0.00,0.000000,,2013-08-07 11:43:00,
2013-08-07 04:52:00,65.0,34.0,-100.00,West,275,3.0,10.0,31,0.00,,,0.00,0.000000,,2013-08-07 11:52:00,
2013-08-07 05:02:00,65.0,34.0,-100.00,West,275,3.0,10.0,31,0.00,,,0.00,0.000000,,2013-08-07 12:02:00,
2013-08-07 05:33:00,63.0,31.0,-100.00,NE,56,3.0,13.0,30,0.00,,,0.00,0.000000,,2013-08-07 12:33:00,
2013-08-07 05:43:00,63.0,31.0,-100.00,NE,56,3.0,13.0,30,0.00,,,0.00,0.000000,,2013-08-07 12:43:00,
2013-08-07 05:52:00,63.0,31.0,-100.00,NE,56,3.0,13.0,30,0.00,,,0.00,0.000000,,2013-08-07 12:52:00,
2013-08-07 06:02:00,63.0,31.0,-100.00,NE,56,3.0,13.0,30,0.00,,,0.00,0.000000,,2013-08-07 13:02:00,
2013-08-07 06:44:00,64.0,29.0,-100.00,WSW,253,2.0,12.0,27,0.00,,,0.00,14.000000,,2013-08-07 13:44:00,
2013-08-07 06:53:00,64.0,29.0,-100.00,WSW,253,2.0,12.0,27,0.00,,,0.00,14.000000,,2013-08-07 13:53:00,
2013-08-07 10:43:00,80.0,33.0,-100.00,SSW,213,3.0,12.0,18,-99.99,,,0.00,815.000000,,2013-08-07 17:43:00,
2013-08-07 13:43:00,85.0,34.0,-100.00,SSE,149,4.0,12.0,16,-99.99,,,0.00,1111.000000,,2013-08-07 20:43:00,
2013-08-07 13:52:00,85.0,34.0,-100.00,SSE,149,4.0,12.0,16,-99.99,,,0.00,1111.000000,,2013-08-07 20:52:00,
2013-08-07 14:01:00,85.0,34.0,-100.00,SSE,149,4.0,12.0,16,-99.99,,,0.00,1111.000000,,2013-08-07 21:01:00,
2013-08-07 14:43:00,84.0,39.0,-100.00,ENE,78,3.0,11.0,20,0.00,,,0.00,1115.000000,,2013-08-07 21:43:00,
2013-08-07 14:52:00,84.0,39.0,-100.00,ENE,78,3.0,11.0,20,0.00,,,0.00,1115.000000,,2013-08-07 21:52:00,
2013-08-07 15:01:00,84.0,39.0,-100.00,ENE,78,3.0,11.0,20,0.00,,,0.00,1115.000000,,2013-08-07 22:01:00,
2013-08-07 18:32:00,79.0,39.0,-100.00,NNE,32,5.0,20.0,24,0.00,,,0.00,522.000000,,2013-08-08 01:32:00,
2013-08-07 18:43:00,79.0,39.0,-100.00,NNE,32,5.0,20.0,24,0.00,,,0.00,522.000000,,2013-08-08 01:43:00,
2013-08-07 18:52:00,79.0,39.0,-100.00,NNE,32,5.0,20.0,24,0.00,,,0.00,522.000000,,2013-08-08 01:52:00,
2013-08-07 19:02:00,79.0,39.0,-100.00,NNE,32,5.0,20.0,24,0.00,,,0.00,522.000000,,2013-08-08 02:02:00,
2013-08-07 19:32:00,71.0,40.0,-100.00,ESE,119,6.0,20.0,33,0.00,,,0.00,131.000000,,2013-08-08 02:32:00,
2013-08-07 19:43:00,71.0,40.0,-100.00,ESE,119,6.0,20.0,33,0.00,,,0.00,131.000000,,2013-08-08 02:43:00,
2013-08-07 19:52:00,71.0,40.0,-100.00,ESE,119,6.0,20.0,33,0.00,,,0.00,131.000000,,2013-08-08 02:52:00,
2013-08-07 20:01:00,71.0,40.0,-100.00,ESE,119,6.0,20.0,33,0.00,,,0.00,131.000000,,2013-08-08 03:01:00,
2013-08-07 20:32:00,68.0,42.0,-100.00,South,184,8.0,18.0,39,0.00,,,0.00,16.000000,,2013-08-08 03:32:00,
2013-08-07 20:43:00,68.0,42.0,-100.00,South,184,8.0,18.0,39,0.00,,,0.00,16.000000,,2013-08-08 03:43:00,
2013-08-07 20:52:00,68.0,42.0,-100.00,South,184,8.0,18.0,39,0.00,,,0.00,16.000000,,2013-08-08 03:52:00,
2013-08-07 21:01:00,68.0,42.0,-100.00,South,184,8.0,18.0,39,0.00,,,0.00,16.000000,,2013-08-08 04:01:00,
2013-08-07 21:33:00,65.0,44.0,-100.00,SSE,164,6.0,19.0,46,0.00,,,0.00,0.000000,,2013-08-08 04:33:00,
2013-08-07 21:44:00,65.0,44.0,-100.00,SSE,164,6.0,19.0,46,0.00,,,0.00,0.000000,,2013-08-08 04:44:00,
2013-08-07 21:53:00,65.0,44.0,-100.00,SSE,164,6.0,19.0,46,0.00,,,0.00,0.000000,,2013-08-08 04:53:00,
2013-08-07 22:01:00,65.0,44.0,-100.00,SSE,164,6.0,19.0,46,0.00,,,0.00,0.000000,,2013-08-08 05:01:00,
2013-08-07 22:33:00,64.0,45.0,-100.00,West,262,4.0,18.0,50,0.00,,,0.00,0.000000,,2013-08-08 05:33:00,
2013-08-07 22:43:00,64.0,45.0,-100.00,West,262,4.0,18.0,50,0.00,,,0.00,0.000000,,2013-08-08 05:43:00,
2013-08-07 22:52:00,64.0,45.0,-100.00,West,262,4.0,18.0,50,0.00,,,0.00,0.000000,,2013-08-08 05:52:00,
2013-08-07 23:01:00,64.0,45.0,-100.00,West,262,4.0,18.0,50,0.00,,,0.00,0.000000,,2013-08-08 06:01:00,
2013-08-07 23:32:00,63.0,45.0,-100.00,SSW,194,4.0,13.0,51,0.00,,,0.00,0.000000,,2013-08-08 06:32:00,
2013-08-07 23:43:00,63.0,45.0,-100.00,SSW,194,4.0,13.0,51,0.00,,,0.00,0.000000,,2013-08-08 06:43:00,
2013-08-07 23:52:00,63.0,45.0,-100.00,SSW,194,4.0,13.0,51,0.00,,,0.00,0.000000,,2013-08-08 06:52:00,